Location: Pabrico
(37.5827°N, 122.0063°W)
Time: 14:27:56
(UTC+00:00)

YAOGAN 11 - Visible Passes

Search period start: 14 July 2024 00:00
Search period end: 24 July 2024 00:00
Orbit: 606 x 657 km, 98.4° (Epoch: 13 July)

Date Brightness Start Highest point End Pass type
(mag) Time Alt. Az. Time Alt. Az. Time Alt. Az.
16 Jul 7.3 12:03:19 10° E 12:05:42 15° ENE 12:08:07 10° NNE visible
17 Jul 6.9 12:22:56 10° ESE 12:26:23 24° ENE 12:29:54 10° NNE visible
20 Jul 7.9 11:52:18 10° ENE 11:53:10 11° ENE 11:54:02 10° NE visible
21 Jul 7.2 12:10:55 10° ESE 12:13:47 17° ENE 12:16:42 10° NNE visible
22 Jul 6.6 12:30:46 10° SE 12:34:29 28° ENE 12:38:16 10° N visible
